User: anonymous   Login
Location: Unspecified
(0.0000°N, 0.0000°E)
Time: 13:23:55
(UTC+00:00)
Language:

RAX (USA 218) - Orbit

View from above orbital plane
View from above orbital plane
View from above satellite
View from above satellite

Ground track
Ground track

The orbit data is extracted from the following two-line orbital elements,

1 37223U 10062B   24260.50762661  .00010919  00000-0  10722-2 0  9997
2 37223  71.9710  53.7204 0015644 185.7047 174.3947 14.92222938 18632
Epoch (UTC): 16 September 2024 12:10:58
Eccentricity: 0.0015644
inclination: 71.9710°
perigee height: 580 km
apogee height: 602 km
right ascension of ascending node: 53.7204°
argument of perigee: 185.7047°
revolutions per day: 14.92222938
mean anomaly at epoch: 174.3947°
orbit number at epoch: 1863

The dashed part of the orbit path shows where the satellite is in the earth's shadow,  

DLR